Location: ??
(35.5052°N, 139.7262°E)
Time: 16:56:36
(UTC+00:00)

Cosmos 1408 Rocket - Pass Details

Date: 20 June 2021
Orbit: 600 x 632 km, 82.6° (Epoch: 29 July)

Event Time Altitude Azimuth Distance (km) Brightness Sun altitude
Exits shadow 17:34:33 28° 176° (S) 1,182 4.6 -18.4°
Maximum altitude 17:36:51 76° 95° (E) 653 3.7 -18.1°
Drops below altitude 10° 17:41:19 10° 10° (N) 2,018 7.0 -17.5°
Sets 17:43:34 0° 9° (N) 2,930 8.0 -17.2°
